Location: LewisvilleTX
(33.0462°N, 96.9942°W)
Time: 08:13:06
(UTC+00:00)

Envisat - Pass Details

Date: 28 September 2020
Orbit: 764 x 766 km, 98.1° (Epoch: 21 October)

Event Time Altitude Azimuth Distance (km) Brightness Sun altitude
Rises 11:41:06 0° 25° (NNE) 3,233 6.7 -9.1°
Reaches altitude 10° 11:43:42 10° 37° (NE) 2,303 6.1 -8.5°
Maximum altitude 11:48:04 29° 97° (E) 1,383 5.4 -7.6°
Drops below altitude 10° 11:52:24 10° 156° (SSE) 2,291 5.8 -6.7°
Sets 11:54:59 0° 167° (SSE) 3,212 6.4 -6.2°
